timestamp,wind_dir_avg,wind_spd_avg,wind_spd_max_dir,wind_spd_gust,battery_voltage,lat,long
2021-04-29 00:04:01+00:00,215.0,8.91,216.0,9.83,12.57,47.59359,-54.27349
2021-04-29 00:14:01+00:00,213.0,8.57,216.0,9.62,12.57,47.59359,-54.27349
2021-04-29 00:24:01+00:00,215.0,8.92,219.0,9.63,12.57,47.59359,-54.27349
2021-04-29 00:34:01+00:00,217.0,6.55,216.0,7.31,12.57,47.59359,-54.27349
2021-04-29 00:44:01+00:00,215.0,7.21,219.0,8.45,12.57,47.59359,-54.27349
2021-04-29 00:54:01+00:00,212.0,6.55,211.0,7.31,12.57,47.59359,-54.27349
2021-04-29 01:04:01+00:00,214.0,7.41,216.0,9.0,12.57,47.59359,-54.27349
2021-04-29 01:14:01+00:00,212.0,6.98,216.0,7.97,12.49,47.59359,-54.27349
2021-04-29 01:24:01+00:00,213.0,7.07,212.0,8.02,12.49,47.59359,-54.27349
2021-04-29 01:34:01+00:00,212.0,7.85,211.0,8.75,12.49,47.59359,-54.27349
2021-04-29 01:44:01+00:00,213.0,8.41,216.0,9.37,12.49,47.59359,-54.27349
2021-04-29 01:54:01+00:00,211.0,7.62,212.0,8.45,12.49,47.59359,-54.27349
2021-04-29 02:04:01+00:00,211.0,8.79,214.0,9.63,12.49,47.59359,-54.27349
2021-04-29 02:14:00+00:00,215.0,8.16,209.0,9.48,12.49,47.59359,-54.27349
2021-04-29 02:24:00+00:00,212.0,8.49,216.0,9.44,12.49,47.59359,-54.27349
2021-04-29 02:34:00+00:00,213.0,8.97,214.0,9.57,12.49,47.59359,-54.27349
2021-04-29 02:44:00+00:00,212.0,8.29,215.0,9.53,12.49,47.59359,-54.27349
2021-04-29 02:54:00+00:00,212.0,8.35,213.0,8.93,12.49,47.59359,-54.27349
2021-04-29 03:04:00+00:00,213.0,9.94,217.0,11.0,12.49,47.59359,-54.27349
2021-04-29 03:14:01+00:00,213.0,9.36,216.0,10.21,12.49,47.59359,-54.27349
2021-04-29 03:24:01+00:00,217.0,8.21,218.0,9.44,12.49,47.59359,-54.27349
2021-04-29 03:34:01+00:00,215.0,7.83,219.0,8.85,12.49,47.59359,-54.27349
2021-04-29 03:44:01+00:00,216.0,7.83,217.0,8.74,12.49,47.59359,-54.27349
2021-04-29 03:54:01+00:00,214.0,7.27,216.0,8.05,12.49,47.59359,-54.27349
2021-04-29 04:04:01+00:00,215.0,7.53,215.0,8.37,12.49,47.59359,-54.27349
2021-04-29 04:14:01+00:00,217.0,6.56,216.0,7.21,12.49,47.59359,-54.27349
2021-04-29 04:24:01+00:00,222.0,6.37,219.0,6.89,12.49,47.59359,-54.27349
2021-04-29 04:34:01+00:00,222.0,5.7,222.0,7.2,12.49,47.59359,-54.27349
2021-04-29 04:44:01+00:00,222.0,6.19,222.0,7.16,12.49,47.59359,-54.27349
2021-04-29 04:54:01+00:00,234.0,5.59,237.0,6.32,12.49,47.59359,-54.27349
2021-04-29 05:04:01+00:00,236.0,5.03,236.0,5.76,12.49,47.59359,-54.27349
2021-04-29 05:14:01+00:00,238.0,5.73,238.0,6.41,12.41,47.59359,-54.27349
2021-04-29 05:24:01+00:00,231.0,6.03,229.0,6.75,12.41,47.59359,-54.27349
2021-04-29 05:34:01+00:00,226.0,6.39,227.0,7.45,12.41,47.59359,-54.27349
2021-04-29 05:44:01+00:00,224.0,6.11,225.0,6.8,12.41,47.59359,-54.27349
2021-04-29 05:54:01+00:00,228.0,5.28,216.0,6.02,12.41,47.59359,-54.27349
2021-04-29 06:04:01+00:00,235.0,6.29,237.0,7.62,12.41,47.59359,-54.27349
2021-04-29 06:14:01+00:00,246.0,6.98,245.0,8.17,12.41,47.59359,-54.27349
2021-04-29 06:24:01+00:00,243.0,6.12,235.0,6.75,12.41,47.59359,-54.27349
2021-04-29 06:34:01+00:00,234.0,5.51,233.0,6.16,12.41,47.59359,-54.27349
2021-04-29 06:44:01+00:00,230.0,5.15,226.0,5.93,12.41,47.59359,-54.27349
2021-04-29 06:54:01+00:00,222.0,4.44,229.0,5.4,12.41,47.59359,-54.27349
2021-04-29 07:04:01+00:00,225.0,5.34,224.0,6.67,12.41,47.59359,-54.27349
2021-04-29 07:14:01+00:00,231.0,5.87,232.0,6.93,12.41,47.59359,-54.27349
2021-04-29 07:24:01+00:00,224.0,5.38,219.0,6.1,12.41,47.59359,-54.27349
2021-04-29 07:34:01+00:00,231.0,5.96,237.0,6.9,12.41,47.59359,-54.27349
2021-04-29 07:44:01+00:00,225.0,6.54,227.0,6.98,12.41,47.59359,-54.27349
2021-04-29 07:54:01+00:00,229.0,6.25,223.0,6.99,12.41,47.59359,-54.27349
2021-04-29 08:04:01+00:00,229.0,5.75,229.0,6.44,12.41,47.59359,-54.27349
2021-04-29 08:14:01+00:00,229.0,5.06,230.0,5.67,12.33,47.59359,-54.27349
2021-04-29 08:24:01+00:00,230.0,5.1,227.0,5.87,12.33,47.59359,-54.27349
2021-04-29 08:34:01+00:00,233.0,4.18,235.0,4.84,12.33,47.59359,-54.27349
2021-04-29 08:44:01+00:00,233.0,4.83,219.0,5.56,12.33,47.59359,-54.27349
2021-04-29 08:54:01+00:00,237.0,5.0,235.0,5.38,12.33,47.59359,-54.27349
2021-04-29 09:04:01+00:00,239.0,5.69,241.0,6.93,12.33,47.59359,-54.27349
2021-04-29 09:14:00+00:00,224.0,3.01,216.0,3.78,12.41,47.59359,-54.27349
2021-04-29 09:24:00+00:00,230.0,3.48,231.0,4.35,12.41,47.59359,-54.27349
2021-04-29 09:34:00+00:00,231.0,4.38,229.0,5.16,12.41,47.59359,-54.27349
2021-04-29 09:44:00+00:00,216.0,3.36,209.0,4.12,12.41,47.59359,-54.27349
2021-04-29 09:54:00+00:00,231.0,3.58,233.0,4.18,12.41,47.59359,-54.27349
2021-04-29 10:04:00+00:00,251.0,4.3,253.0,4.85,12.41,47.59359,-54.27349
2021-04-29 10:14:01+00:00,239.0,4.57,236.0,5.06,12.57,47.59359,-54.27349
2021-04-29 10:24:01+00:00,238.0,3.79,239.0,4.32,12.57,47.59359,-54.27349
2021-04-29 10:34:01+00:00,234.0,3.28,234.0,3.92,12.57,47.59359,-54.27349
2021-04-29 10:44:01+00:00,231.0,3.89,232.0,4.59,12.57,47.59359,-54.27349
2021-04-29 10:54:01+00:00,225.0,3.59,219.0,4.37,12.57,47.59359,-54.27349
2021-04-29 11:04:01+00:00,214.0,3.16,218.0,3.57,12.57,47.59359,-54.27349
2021-04-29 11:14:01+00:00,215.0,3.46,221.0,4.14,13.6,47.59359,-54.27349
2021-04-29 11:24:01+00:00,214.0,2.95,217.0,3.65,13.6,47.59359,-54.27349
2021-04-29 11:34:01+00:00,209.0,4.14,214.0,4.54,13.6,47.59359,-54.27349
2021-04-29 11:44:01+00:00,208.0,4.87,210.0,5.15,13.6,47.59359,-54.27349
2021-04-29 11:54:01+00:00,194.0,4.09,197.0,4.53,13.6,47.59359,-54.27349
2021-04-29 12:04:01+00:00,201.0,5.03,198.0,5.43,13.6,47.59359,-54.27349
2021-04-29 12:14:01+00:00,203.0,5.78,204.0,6.48,13.84,47.59359,-54.27349
2021-04-29 12:24:01+00:00,201.0,5.98,203.0,6.92,13.84,47.59359,-54.27349
2021-04-29 12:34:01+00:00,206.0,6.86,205.0,7.53,13.84,47.59359,-54.27349
2021-04-29 12:44:01+00:00,206.0,6.27,204.0,6.91,13.84,47.59359,-54.27349
2021-04-29 12:54:01+00:00,206.0,5.79,209.0,6.14,13.84,47.59359,-54.27349
2021-04-29 13:04:01+00:00,195.0,5.65,195.0,6.18,13.84,47.59359,-54.27349
2021-04-29 13:14:01+00:00,196.0,5.92,197.0,6.42,14.24,47.59359,-54.27349
2021-04-29 13:24:01+00:00,195.0,5.7,197.0,6.11,14.24,47.59359,-54.27349
2021-04-29 13:34:01+00:00,195.0,5.13,196.0,5.6,14.24,47.59359,-54.27349
2021-04-29 13:44:01+00:00,201.0,5.1,206.0,5.44,14.24,47.59359,-54.27349
2021-04-29 13:54:01+00:00,203.0,5.66,203.0,6.28,14.24,47.59359,-54.27349
2021-04-29 14:04:01+00:00,207.0,5.44,208.0,5.84,14.24,47.59359,-54.27349
2021-04-29 14:14:01+00:00,208.0,5.28,212.0,5.59,13.76,47.59359,-54.27349
2021-04-29 14:24:01+00:00,207.0,5.36,209.0,5.7,13.76,47.59359,-54.27349
2021-04-29 14:34:01+00:00,215.0,4.98,218.0,5.37,13.76,47.59359,-54.27349
2021-04-29 14:44:01+00:00,209.0,4.31,209.0,4.76,13.76,47.59359,-54.27349
2021-04-29 14:54:01+00:00,205.0,4.17,207.0,5.07,13.76,47.59359,-54.27349
2021-04-29 15:04:01+00:00,203.0,6.12,199.0,7.84,13.76,47.59359,-54.27349
2021-04-29 15:14:01+00:00,205.0,6.3,208.0,7.16,13.68,47.59359,-54.27349
2021-04-29 15:24:01+00:00,206.0,5.64,207.0,6.33,13.68,47.59359,-54.27349
2021-04-29 15:34:01+00:00,216.0,7.01,221.0,8.22,13.68,47.59359,-54.27349
2021-04-29 15:44:01+00:00,219.0,8.04,221.0,8.8,13.68,47.59359,-54.27349
2021-04-29 15:54:01+00:00,213.0,7.17,214.0,7.73,13.68,47.59359,-54.27349
2021-04-29 16:04:01+00:00,215.0,7.95,215.0,8.95,13.68,47.59359,-54.27349
2021-04-29 16:14:01+00:00,217.0,8.67,222.0,9.67,13.84,47.59359,-54.27349
2021-04-29 16:24:01+00:00,217.0,8.66,217.0,9.46,13.84,47.59359,-54.27349
2021-04-29 16:34:01+00:00,217.0,8.14,214.0,9.71,13.84,47.59359,-54.27349
2021-04-29 16:44:01+00:00,208.0,9.87,210.0,10.71,13.84,47.59359,-54.27349
2021-04-29 16:54:01+00:00,209.0,9.07,201.0,10.88,13.84,47.59359,-54.27349
2021-04-29 17:04:01+00:00,208.0,8.25,210.0,9.09,13.84,47.59359,-54.27349
2021-04-29 17:14:01+00:00,211.0,8.47,210.0,9.38,13.84,47.59359,-54.27349
2021-04-29 17:24:01+00:00,210.0,7.7,205.0,8.45,13.84,47.59359,-54.27349
2021-04-29 17:34:01+00:00,208.0,7.73,208.0,8.54,13.84,47.59359,-54.27349
2021-04-29 17:44:01+00:00,212.0,7.3,214.0,8.03,13.84,47.59359,-54.27349
2021-04-29 17:54:01+00:00,214.0,7.67,214.0,8.53,13.84,47.59359,-54.27349
2021-04-29 18:04:01+00:00,205.0,6.79,207.0,7.51,13.84,47.59359,-54.27349
2021-04-29 18:14:01+00:00,205.0,6.72,209.0,7.58,13.84,47.59359,-54.27349
2021-04-29 18:24:01+00:00,212.0,7.69,215.0,8.93,13.84,47.59359,-54.27349
2021-04-29 18:34:01+00:00,208.0,7.55,207.0,8.31,13.84,47.59359,-54.27349
2021-04-29 18:44:01+00:00,203.0,7.28,200.0,7.89,13.84,47.59359,-54.27349
2021-04-29 18:54:01+00:00,207.0,6.8,209.0,7.71,13.84,47.59359,-54.27349
2021-04-29 19:04:01+00:00,203.0,8.02,201.0,8.62,13.84,47.59359,-54.27349
2021-04-29 19:14:01+00:00,204.0,7.66,209.0,8.57,13.84,47.59359,-54.27349
2021-04-29 19:24:01+00:00,210.0,7.85,210.0,8.59,13.84,47.59359,-54.27349
2021-04-29 19:34:01+00:00,212.0,8.31,211.0,9.03,13.84,47.59359,-54.27349
2021-04-29 19:44:01+00:00,208.0,7.5,209.0,8.67,13.84,47.59359,-54.27349
2021-04-29 19:54:01+00:00,207.0,7.26,209.0,7.78,13.84,47.59359,-54.27349
2021-04-29 20:04:01+00:00,212.0,6.88,207.0,7.68,13.84,47.59359,-54.27349
2021-04-29 20:14:01+00:00,214.0,6.31,215.0,7.13,13.92,47.59359,-54.27349
2021-04-29 20:24:01+00:00,209.0,6.28,216.0,6.92,13.92,47.59359,-54.27349
2021-04-29 20:34:01+00:00,210.0,5.19,210.0,5.65,13.92,47.59359,-54.27349
2021-04-29 20:44:01+00:00,215.0,6.12,216.0,6.81,13.92,47.59359,-54.27349
2021-04-29 20:54:01+00:00,207.0,4.62,209.0,4.97,13.92,47.59359,-54.27349
2021-04-29 21:04:01+00:00,198.0,6.57,197.0,7.4,13.92,47.59359,-54.27349
2021-04-29 21:14:01+00:00,195.0,5.64,199.0,6.67,13.84,47.59359,-54.27349
2021-04-29 21:24:01+00:00,199.0,5.74,203.0,6.71,13.84,47.59359,-54.27349
2021-04-29 21:34:01+00:00,197.0,5.33,200.0,5.8,13.84,47.59359,-54.27349
2021-04-29 21:44:01+00:00,198.0,5.59,198.0,6.08,13.84,47.59359,-54.27349
2021-04-29 21:54:01+00:00,213.0,6.31,213.0,6.88,13.84,47.59359,-54.27349
2021-04-29 22:04:01+00:00,212.0,6.64,214.0,7.09,13.84,47.59359,-54.27349
2021-04-29 22:14:01+00:00,223.0,6.6,221.0,7.57,13.6,47.59359,-54.27349
2021-04-29 22:24:01+00:00,222.0,4.44,221.0,5.41,13.6,47.59359,-54.27349
2021-04-29 22:34:01+00:00,221.0,3.8,222.0,4.13,13.6,47.59359,-54.27349
2021-04-29 22:44:01+00:00,207.0,3.96,208.0,4.55,13.6,47.59359,-54.27349
2021-04-29 22:54:01+00:00,204.0,4.21,202.0,4.6,13.6,47.59359,-54.27349
2021-04-29 23:04:01+00:00,208.0,4.93,209.0,5.41,13.6,47.59359,-54.27349
2021-04-29 23:14:01+00:00,212.0,4.93,213.0,5.24,12.97,47.59359,-54.27349
2021-04-29 23:24:01+00:00,222.0,4.62,219.0,5.41,12.97,47.59359,-54.27349
2021-04-29 23:34:01+00:00,225.0,3.3,224.0,3.7,12.97,47.59359,-54.27349
2021-04-29 23:44:01+00:00,225.0,1.93,225.0,2.34,12.97,47.59359,-54.27349
2021-04-29 23:54:01+00:00,162.0,1.76,163.0,1.99,12.97,47.59359,-54.27349
